This is the latest recevied weather packets stored in our database for station/object N5ATR. If no packets are shown the sender has not sent any weather packets the latest 10 day(s).
| Time | Temp. | Humidity | Pressure | Rain* | Wind** | Luminosity | Snow |
|---|---|---|---|---|---|---|---|
| 1777476081 | 9.44° C | 42% | 1019.1 hPa | 0 mm | - | 318 W/m² | - |
| 1777475781 | 8.89° C | 43% | 1019.1 hPa | 0 mm | - | 353 W/m² | - |
| 1777475478 | 8.89° C | 44% | 1019.1 hPa | 0 mm | - | 301 W/m² | - |
| 1777475174 | 8.33° C | 45% | 1019 hPa | 0 mm | - | 356 W/m² | - |
| 1777474870 | 7.78° C | 46% | 1019.1 hPa | 0 mm | - | 266 W/m² | - |
| 1777474565 | 8.33° C | 45% | 1018.8 hPa | 0 mm | - | 276 W/m² | - |
| 1777474263 | 7.78° C | 47% | 1018.7 hPa | 0 mm | - | 286 W/m² | - |
| 1777473960 | 7.22° C | 48% | 1019 hPa | 0 mm | - | 216 W/m² | - |
| 1777473657 | 7.22° C | 48% | 1019.1 hPa | 0 mm | - | 201 W/m² | - |
| 1777473353 | 6.67° C | 49% | 1019.3 hPa | 0 mm | - | 174 W/m² | - |
| 1777473049 | 6.67° C | 49% | 1019.1 hPa | 0 mm | - | 164 W/m² | - |
| 1777472745 | 7.22° C | 49% | 1019 hPa | 0 mm | - | 163 W/m² | - |
| 1777472442 | 6.67° C | 50% | 1019.2 hPa | 0 mm | - | 191 W/m² | - |
| 1777472140 | 6.67° C | 51% | 1019.2 hPa | 0 mm | - | 158 W/m² | - |
| 1777471839 | 6.67° C | 51% | 1019 hPa | 0 mm | - | 173 W/m² | - |
| 1777471537 | 6.11° C | 52% | 1019.3 hPa | 0 mm | - | 141 W/m² | - |
| 1777471233 | 6.67° C | 51% | 1019.3 hPa | 0 mm | - | 118 W/m² | - |
| 1777470931 | 6.11° C | 51% | 1019.1 hPa | 0 mm | - | 92 W/m² | - |
| 1777470627 | 6.11° C | 51% | 1019.2 hPa | 0 mm | - | 70 W/m² | - |
| 1777470323 | 6.11° C | 52% | 1019 hPa | 0 mm | - | 68 W/m² | - |
| 1777470020 | 6.11° C | 52% | 1019.2 hPa | 0 mm | - | 55 W/m² | - |
| 1777469715 | 5.56° C | 53% | 1019.1 hPa | 0 mm | - | 50 W/m² | - |
| 1777469412 | 5° C | 53% | 1019 hPa | 0 mm | - | 42 W/m² | - |
| 1777469107 | 5° C | 53% | 1018.6 hPa | 0 mm | - | 38 W/m² | - |
| 1777468807 | 4.44° C | 53% | 1018.7 hPa | 0 mm | - | 39 W/m² | - |
* Rain latest hour (hover to see other rain measurements)
** Current wind speed in m/s (hover to see current wind gust speed)